Gunnison, CO

7:43 AM MST on December 15, 2017 (GMT -0700)
Gunnison County

Weather History for KGUC - August, 2013

Change the Weather History Date:

Tuesday, August 13, 2013

  Actual Average Record
Temperature  
Mean Temperature 58 °F -  
Max Temperature 75 °F 75 °F 84 °F (1996)
Min Temperature 41 °F 42 °F 37 °F (1999)
Degree Days  
Heating Degree Days 7    
Growing Degree Days 8 (Base 50)    
Moisture  
Dew Point 38 °F    
Average Humidity 55    
Maximum Humidity 81    
Minimum Humidity 22    
Precipitation  
Precipitation 0.01 in - - ()
Sea Level Pressure  
Sea Level Pressure 30.43 in    
Wind  
Wind Speed 3 mph (NNW)    
Max Wind Speed 12 mph    
Max Gust Speed 20 mph    
Visibility 10 miles    
Events      
Averages and records for this station are not official NWS values.
T = Trace of Precipitation, MM = Missing Value Source: NWS Daily Summary

Daily Weather History Graph

Daily Weather History Graph

Search for Another Location

Airport or City:

Trip Planner

Search our weather history database for the weather conditions in past years. The results will help you decide how hot, cold, wet, or windy it might be!

Date:

Astronomy

Aug. 13, 2013 Rise Set
Actual Time 6:20 AM MDT 8:03 PM MDT
Civil Twilight 5:51 AM MDT 8:32 PM MDT
Nautical Twilight 5:17 AM MDT 9:06 PM MDT
Astronomical Twilight 4:40 AM MDT 9:43 PM MDT
Moon 1:12 PM MDT (8/13) 11:47 PM MDT (8/13)
Length of Visible Light 14h 40m
Length of Day
13h 43m
Waxing Crescent, 42% of the Moon is Illuminated
Aug 13
Waxing Crescent
Aug 14
First Quarter
Aug 20
Full
Aug 28
Last Quarter
Sep 5
New

Hourly Weather History & Observations

Time (MDT) Temp. Windchill Dew Point Humidity Pressure Visibility Wind Dir Wind Speed Gust Speed Precip Events Conditions
12:15 AM 46.4 °F - 39.2 °F 76% 30.46 in 10.0 mi Calm Calm - N/A   Clear
12:35 AM 48.2 °F - 41.0 °F 76% 30.46 in 10.0 mi Calm Calm - N/A   Clear
12:55 AM 48.2 °F - 39.2 °F 71% 30.46 in 10.0 mi NNW 5.8 mph - N/A   Clear
1:15 AM 46.4 °F - 39.2 °F 76% 30.46 in 10.0 mi Calm Calm - N/A   Clear
1:35 AM 48.2 °F - 39.2 °F 71% 30.45 in 10.0 mi NNE 8.1 mph - N/A   Clear
1:55 AM 46.4 °F 44.3 °F 39.2 °F 76% 30.45 in 10.0 mi North 4.6 mph - N/A   Clear
2:15 AM 46.4 °F 44.3 °F 39.2 °F 76% 30.45 in 10.0 mi NNW 4.6 mph - N/A   Clear
2:35 AM 46.4 °F 43.5 °F 39.2 °F 76% 30.45 in 10.0 mi NNE 5.8 mph - N/A   Clear
2:55 AM 44.6 °F - 37.4 °F 76% 30.45 in 10.0 mi North - - N/A   Clear
3:15 AM 44.6 °F 43.1 °F 37.4 °F 76% 30.46 in 10.0 mi NNE 3.5 mph - N/A   Clear
3:35 AM 44.6 °F 42.2 °F 37.4 °F 76% 30.46 in 10.0 mi North 4.6 mph - N/A   Clear
3:55 AM 44.6 °F - 37.4 °F 76% 30.46 in 10.0 mi Calm Calm - N/A   Clear
4:15 AM 42.8 °F - 37.4 °F 81% 30.45 in 10.0 mi Calm Calm - N/A   Clear
4:35 AM 44.6 °F 43.1 °F 37.4 °F 76% 30.45 in 10.0 mi North 3.5 mph - N/A   Clear
4:55 AM 42.8 °F - 37.4 °F 81% 30.45 in 10.0 mi Calm Calm - N/A   Clear
5:15 AM 42.8 °F 39.3 °F 37.4 °F 81% 30.46 in 10.0 mi North 5.8 mph - N/A   Clear
5:35 AM 42.8 °F - 35.6 °F 76% 30.46 in 10.0 mi Calm Calm - N/A   Clear
5:55 AM 41.0 °F - 35.6 °F 81% 30.46 in 10.0 mi Calm Calm - N/A   Clear
6:15 AM 41.0 °F - 35.6 °F 81% 30.46 in 10.0 mi Calm Calm - N/A   Clear
6:35 AM 42.8 °F - 37.4 °F 81% 30.47 in 10.0 mi Calm Calm - N/A   Clear
6:55 AM 42.8 °F - 35.6 °F 76% 30.48 in 10.0 mi Calm Calm - N/A   Clear
7:15 AM 42.8 °F - 37.4 °F 81% 30.49 in 10.0 mi Calm Calm - N/A   Clear
7:35 AM 42.8 °F - 37.4 °F 81% 30.49 in 10.0 mi Calm Calm - N/A   Clear
7:55 AM 44.6 °F - 39.2 °F 81% 30.50 in 10.0 mi Calm Calm - N/A   Clear
8:15 AM 46.4 °F - 39.2 °F 76% 30.50 in 10.0 mi Calm Calm - N/A   Clear
8:35 AM 48.2 °F - 39.2 °F 71% 30.50 in 10.0 mi Calm Calm - N/A   Clear
8:55 AM 48.2 °F - 39.2 °F 71% 30.50 in 10.0 mi Calm Calm - N/A   Clear
9:15 AM 51.8 °F - 42.8 °F 71% 30.49 in 10.0 mi Calm Calm - N/A   Clear
9:35 AM 51.8 °F - 42.8 °F 71% 30.49 in 10.0 mi Calm Calm - N/A   Clear
9:55 AM 53.6 °F - 42.8 °F 67% 30.49 in 10.0 mi Calm Calm - N/A   Clear
10:15 AM 55.4 °F - 42.8 °F 63% 30.49 in 10.0 mi Calm Calm - N/A   Clear
10:35 AM 57.2 °F - 42.8 °F 59% 30.49 in 10.0 mi South 3.5 mph - N/A   Clear
10:55 AM 57.2 °F - 42.8 °F 59% 30.48 in 10.0 mi Calm Calm - N/A   Clear
11:15 AM 60.8 °F - 42.8 °F 52% 30.48 in 10.0 mi SW 4.6 mph - N/A   Clear
11:35 AM 62.6 °F - 44.6 °F 52% 30.47 in 10.0 mi SSW 3.5 mph - N/A   Clear
11:55 AM 62.6 °F - 44.6 °F 52% 30.46 in 10.0 mi WNW 3.5 mph - N/A   Clear
12:15 PM 64.4 °F - 44.6 °F 49% 30.45 in 10.0 mi Calm Calm - N/A   Clear
12:35 PM 66.2 °F - 42.8 °F 43% 30.44 in 10.0 mi WNW 4.6 mph - N/A   Clear
12:55 PM 68.0 °F - 42.8 °F 40% 30.43 in 10.0 mi West 5.8 mph - N/A   Partly Cloudy
1:15 PM 68.0 °F - 41.0 °F 37% 30.43 in 10.0 mi Calm Calm - N/A   Mostly Cloudy
1:35 PM 66.2 °F - 42.8 °F 43% 30.42 in 10.0 mi NNE 3.5 mph - 0.01 in   Mostly Cloudy
1:55 PM 69.8 °F - 42.8 °F 38% 30.41 in 10.0 mi NE 3.5 mph - 0.01 in   Clear
2:15 PM 71.6 °F - 42.8 °F 35% 30.41 in 10.0 mi West 6.9 mph - N/A   Clear
2:35 PM 71.6 °F - 41.0 °F 33% 30.40 in 10.0 mi NW 6.9 mph - N/A   Scattered Clouds
2:55 PM 73.4 °F - 41.0 °F 31% 30.39 in 10.0 mi North 10.4 mph - N/A   Scattered Clouds
3:15 PM 71.6 °F - 39.2 °F 31% 30.39 in 10.0 mi NE 3.5 mph - N/A   Mostly Cloudy
3:35 PM 73.4 °F - 39.2 °F 29% 30.38 in 10.0 mi South 8.1 mph - N/A   Mostly Cloudy
3:55 PM 73.4 °F - 35.6 °F 25% 30.38 in 10.0 mi SW 6.9 mph - N/A   Mostly Cloudy
4:15 PM 73.4 °F - 35.6 °F 25% 30.37 in 10.0 mi WSW 10.4 mph 19.6 mph N/A   Partly Cloudy
4:35 PM 73.4 °F - 35.6 °F 25% 30.37 in 10.0 mi WNW 10.4 mph - N/A   Mostly Cloudy
4:55 PM 75.2 °F - 33.8 °F 22% 30.37 in 10.0 mi West 10.4 mph 18.4 mph N/A   Scattered Clouds
5:15 PM 73.4 °F - 32.0 °F 22% 30.37 in 10.0 mi West 11.5 mph 16.1 mph N/A   Scattered Clouds
5:35 PM 73.4 °F - 32.0 °F 22% 30.36 in 10.0 mi WNW 11.5 mph - N/A   Partly Cloudy
5:55 PM 73.4 °F - 32.0 °F 22% 30.37 in 10.0 mi NW 8.1 mph - N/A   Clear
6:15 PM 73.4 °F - 33.8 °F 23% 30.37 in 10.0 mi West 8.1 mph - N/A   Partly Cloudy
6:35 PM 73.4 °F - 33.8 °F 23% 30.37 in 10.0 mi West 9.2 mph - N/A   Mostly Cloudy
6:55 PM 71.6 °F - 33.8 °F 25% 30.37 in 10.0 mi Calm Calm - N/A   Scattered Clouds
7:15 PM 71.6 °F - 37.4 °F 29% 30.36 in 10.0 mi North 6.9 mph - N/A   Clear
7:35 PM 69.8 °F - 35.6 °F 28% 30.37 in 10.0 mi NW 6.9 mph - N/A   Clear
7:55 PM 68.0 °F - 35.6 °F 30% 30.37 in 10.0 mi North 5.8 mph - N/A   Clear
8:15 PM 64.4 °F - 35.6 °F 34% 30.38 in 10.0 mi NNW 6.9 mph - N/A   Clear
8:35 PM 62.6 °F - 35.6 °F 37% 30.38 in 10.0 mi NNW 9.2 mph - N/A   Clear
8:55 PM 60.8 °F - 35.6 °F 39% 30.39 in 10.0 mi NNW 3.5 mph - N/A   Clear
9:15 PM 59.0 °F - 37.4 °F 45% 30.39 in 10.0 mi North 6.9 mph - N/A   Clear
9:35 PM 57.2 °F - 37.4 °F 48% 30.40 in 10.0 mi North 6.9 mph - N/A   Clear
9:55 PM 55.4 °F - 37.4 °F 51% 30.40 in 10.0 mi North 6.9 mph - N/A   Clear
10:15 PM 55.4 °F - 37.4 °F 51% 30.41 in 10.0 mi North 5.8 mph - N/A   Clear
10:35 PM 55.4 °F - 37.4 °F 51% 30.41 in 10.0 mi NE 5.8 mph - N/A   Clear
10:55 PM 55.4 °F - 37.4 °F 51% 30.42 in 10.0 mi NNE 4.6 mph - N/A   Clear
11:15 PM 53.6 °F - 37.4 °F 54% 30.42 in 10.0 mi Calm Calm - N/A   Clear
11:35 PM 51.8 °F - 37.4 °F 58% 30.42 in 10.0 mi Calm Calm - N/A   Clear
11:55 PM 51.8 °F - 39.2 °F 62% 30.42 in 10.0 mi Calm Calm - N/A   Clear